Simultaneous Nadir Overpasses (SNOs) Predictions

Prediction of SNOs between AQUA and METOP-A Satellite Orbit:

Table of predicted SNOs for the next 14.0 days since TLE Epoch: 12/14/2013
Index Date (AQUA) Time (AQUA) Lat,Lon (AQUA) SZA (AQUA ) Date (METOP-A) Time (METOP-A) Lat,Lon (METOP-A) SZA (METOP-A ) Distance(km) Time Diff (sec)
1 12/15/2013 23:52:01 73.65, 176.58 96.91 12/15/2013 23:50:50 73.59, 175.72 96.88 27.94 71
2 12/16/2013 00:41:31 -73.89, -16.29 82.85 12/16/2013 00:41:26 -73.88, -16.28 82.85 1.06 5
3 12/16/2013 01:31:00 73.97, 151.17 97.24 12/16/2013 01:32:04 73.97, 151.27 97.24 3.26 64
4 12/18/2013 19:26:13 73.80,-117.28 97.17 12/18/2013 19:25:08 73.82,-117.33 97.20 2.81 65
5 12/18/2013 20:15:40 -73.88, 50.19 82.75 12/18/2013 20:15:49 -73.86, 50.09 82.77 3.63 9
6 12/18/2013 21:05:12 74.12,-142.71 97.50 12/18/2013 21:06:23 74.15,-141.88 97.51 25.69 71
7 12/21/2013 15:00:21 73.86, -50.94 97.27 12/21/2013 14:59:29 73.85, -50.88 97.26 2.71 52
8 12/21/2013 15:49:47 -73.88, 116.65 82.71 12/21/2013 15:50:10 -73.89, 116.54 82.71 3.36 23
9 12/24/2013 10:34:28 73.88, 15.49 97.27 12/24/2013 10:33:51 73.86, 15.55 97.25 3.23 37
10 12/24/2013 11:23:55 -73.95,-177.02 82.66 12/24/2013 11:24:31 -73.95,-176.91 82.67 3.48 36
11 12/27/2013 05:18:53 -73.19, -84.18 83.54 12/27/2013 05:17:47 -73.17, -86.95 83.47 88.96 66
12 12/27/2013 06:08:33 73.86, 82.03 97.17 12/27/2013 06:08:13 73.85, 81.96 97.17 2.26 20
13 12/27/2013 06:58:00 -73.92,-110.48 82.77 12/27/2013 06:58:53 -73.94,-110.50 82.75 2.34 53




NCC Satellite Simultaneous Nadir Overpasses (SNOs) Prediction Service
